map of HKT home
Great Circle Mapper logo
HKT - Airport
Location
City:  Phuket, Phuket, Thailand
Name:Phuket International Airport
ICAO:VTSP
IATA:HKT

Details
Type:Airport (Aerodrome, Airfield)
Use:Public/Civil, International (customs port of entry)
Latitude:806'48"N (8.113200)
Longitude:9819'01"E (98.316872)
Datum:WGS 1984
Elevation:82 ft (25 m)
Variation:0.47W (WMM2015 magnetic declination)
0.02 annual change
Runways:1
Longest:9843 × 148 ft (3000 × 45 m), paved

Time
Time Zone:UTC+7
Local Time:

Weather
METAR:VTSP 042030Z 00000KT 8000 FEW020 SCT120 BKN300 27/24 Q1008 A2977 NOSIG
TAF:VTSP 041700Z 0418/0524 09006KT 8000 FEW020 SCT020 BKN300
BECMG 0504/0506 30010KT PROB40
TEMPO 0511/0515 VRB10G20KT 4000 TSRA FEW016CB SCT020 BKN100
BECMG 0521/0523 00000KT

Related Locations
Nearby:
Farthest:SPYO: 12295 mi / 19787 km
Pacasmayo [Pacasmayo Airport], LAL, PE

Find:

   beyond  
but within

Other Information
Maps:
NOTAMs:
Links:
Sources:

  
flag of Thailand   

Sectional Chart

Flight Planning
at skyvector.com

Satellite Image

Google Maps Satellite view

 

Copyright © 2004-2016 Karl L. Swartz. All rights reserved.
The Great Circle Mapper name and logo are trademarks of the Great Circle Mapper.
All other trademarks mentioned herein belong to their respective owners.
Please see credits for attibutions and further copyright information.

  Follow gcmap on Facebook Follow gcmap on Twitter Follow gcmap on Google+ GCmap on LinkedIn

hCard Microformat

Geo Microformat